Wind_Speed
40 40 41 42 43 43 43 43 42 41 41 41 41 42 42 41 41 41 40 39 38 37 37 35 34 34 34 33 33 33 33 33 34 34 33 33 33 32 33 33 33 32 32
41 41 40 41 42 43 44 44 44 42 42 42 42 43 44 43 43 43 42 41 41 39 38 38 37 36 36 36 36 35 35 35 35 35 35 34 34 34 34 34 34 33 33
41 41 41 42 43 43 44 44 44 44 44 44 44 44 45 45 44 44 43 42 42 41 40 40 39 38 37 37 38 37 37 37 37 37 37 36 36 36 35 35 34 35 35
41 41 42 42 43 43 44 44 44 44 44 45 45 46 45 46 45 44 44 44 43 43 42 41 40 39 39 39 39 38 38 38 38 39 38 38 38 37 36 36 36 36 36
41 42 42 42 43 44 44 45 45 45 45 46 46 47 47 46 46 46 46 45 45 44 43 43 42 41 40 40 40 40 39 39 39 39 39 39 39 38 38 38 38 37 37
41 42 43 43 43 44 44 45 45 46 46 47 47 47 47 47 47 47 47 46 45 45 45 45 44 43 42 42 42 42 41 41 40 40 40 40 39 39 39 40 39 39 39
40 41 42 43 43 44 44 44 45 46 46 46 47 47 47 47 47 47 47 47 46 45 46 45 45 44 44 44 43 42 42 41 40 40 40 40 40 40 40 41 41 41 41
38 39 40 42 43 43 43 44 44 45 46 46 46 47 47 48 47 47 47 47 47 46 46 46 45 44 44 44 44 43 43 42 42 41 41 40 40 40 40 41 41 42 42
37 38 39 40 41 43 43 43 44 45 45 45 45 47 47 48 48 48 47 48 48 48 47 46 45 44 44 44 44 44 44 43 43 42 42 41 41 42 42 42 42 43 43
36 37 38 38 40 42 43 43 43 44 45 46 46 47 48 48 49 48 47 46 47 47 47 45 45 45 45 44 43 43 43 44 44 44 44 44 44 44 43 43 43 44 44
36 37 38 38 39 40 41 41 42 43 44 45 46 47 47 47 48 48 48 47 47 48 47 46 45 45 46 45 45 45 45 45 44 45 45 45 45 45 45 45 45 45 46
34 36 38 38 38 39 40 41 42 43 42 42 43 44 45 47 48 49 49 49 48 47 47 47 46 46 46 47 47 46 46 46 46 46 46 46 46 46 46 47 47 47 47
31 34 35 37 38 39 40 40 41 42 42 41 41 44 45 45 46 48 48 48 49 48 47 47 46 46 46 46 46 47 47 47 47 47 46 46 46 46 47 47 47 48 47
29 32 34 35 36 37 38 39 41 41 42 42 41 42 44 45 45 45 47 48 47 47 47 47 47 46 46 46 45 46 47 47 47 47 47 47 48 47 47 47 47 48 48
27 30 32 34 34 36 36 37 38 40 40 41 41 42 44 44 45 45 47 48 48 48 47 48 47 46 46 45 46 47 47 47 48 48 48 48 48 48 48 48 49 48 48
27 29 30 31 32 33 34 36 37 38 38 38 39 41 42 42 43 45 45 46 46 46 47 48 48 47 47 46 46 47 47 47 47 48 48 48 47 47 48 48 48 48 48
29 30 30 31 33 34 34 35 37 37 38 38 39 39 39 40 41 44 45 46 46 46 46 47 47 47 47 47 47 47 46 47 48 48 47 46 45 45 46 46 47 47 47
29 29 30 31 33 33 33 34 36 36 37 37 38 39 38 38 39 41 43 44 46 47 47 47 46 46 46 47 48 48 47 47 47 46 45 45 45 45 46 46 47 46 46
28 28 29 29 30 31 33 33 35 36 36 36 37 37 37 37 38 41 42 43 45 46 46 46 47 47 47 47 47 47 47 47 46 45 45 45 46 46 46 46 46 47 47
27 26 26 27 29 31 32 32 33 35 36 36 37 38 38 37 37 39 41 42 44 45 45 45 46 47 47 47 47 46 46 46 45 45 45 45 46 46 46 46 46 46 46
27 27 26 27 28 29 31 32 33 34 35 36 37 38 38 39 39 39 39 40 41 42 43 43 43 44 45 45 45 45 45 44 44 44 44 44 44 44 45 45 44 45 45
28 28 28 28 29 30 31 32 33 33 34 34 35 36 37 37 37 37 38 38 39 39 40 41 42 43 43 43 43 43 43 43 42 42 42 43 43 43 43 43 43 44 44
28 29 29 29 29 30 31 32 32 32 32 32 33 34 35 35 36 36 37 37 38 37 38 39 40 41 41 41 41 41 41 42 42 42 42 42 42 43 43 44 44 44 43
28 28 28 28 29 29 30 30 31 33 33 33 33 33 33 34 34 34 35 36 37 37 37 38 38 39 40 40 41 41 41 42 42 42 42 42 43 44 44 44 43 43 43
28 28 28 28 28 28 28 29 30 31 32 33 34 33 34 34 34 34 34 35 36 37 38 38 39 38 39 39 40 41 41 41 41 41 42 43 43 43 43 43 43 43 43
28 28 28 28 28 28 28 28 29 31 32 33 33 33 34 34 34 34 35 35 35 36 37 37 37 38 38 39 39 40 40 40 40 40 41 41 42 42 43 43 43 43 43
Wind_Direction
245 246 246 246 246 246 245 246 248 248 248 247 246 246 246 247 248 249 251 252 254 257 258 260 261 262 264 265 265 266 268 270 271 273 275 277 279 280 281 282 284 286 287
245 246 246 246 246 247 245 246 247 247 248 248 247 246 246 246 248 250 252 253 255 257 259 260 262 263 265 265 265 267 269 271 272 273 275 277 277 278 280 282 284 285 285
248 247 246 247 247 247 246 247 248 247 248 249 248 247 247 247 249 250 252 254 256 257 259 261 262 264 264 265 266 267 269 270 271 272 274 276 277 278 279 281 283 283 284
250 249 248 248 248 248 247 247 247 248 248 248 248 247 247 248 249 252 253 254 254 256 258 260 261 263 263 264 265 266 269 270 271 273 274 276 277 278 279 280 281 282 283
252 251 250 249 248 248 248 248 248 248 248 248 248 248 248 249 250 251 253 253 253 255 257 259 261 262 263 264 264 266 268 270 272 274 275 275 276 277 278 279 280 281 283
252 251 251 249 249 249 249 248 248 248 248 248 248 248 249 249 251 251 252 254 254 254 256 259 260 261 262 263 264 265 267 269 272 273 274 275 276 277 278 278 279 281 283
254 252 251 250 249 249 249 248 248 248 248 249 249 249 250 249 250 251 252 254 255 255 257 258 260 261 261 262 263 265 266 267 270 272 273 274 275 276 278 279 280 280 282
257 254 252 251 251 250 250 249 249 250 250 249 249 249 249 250 250 251 253 253 255 255 257 258 259 260 261 261 263 264 265 267 268 270 271 273 275 276 278 280 282 282 283
259 254 252 253 253 252 250 249 249 250 250 250 250 250 249 250 250 250 252 253 253 255 257 258 258 259 262 262 263 265 266 266 267 269 271 273 274 276 278 279 281 283 284
258 255 253 253 253 252 250 249 249 251 251 251 250 250 250 251 250 250 252 253 253 254 256 257 259 260 261 262 263 264 265 266 267 269 271 273 275 277 278 279 281 283 284
259 257 255 253 253 253 251 249 250 251 252 252 252 251 250 250 250 250 251 253 253 254 255 257 258 259 261 261 262 264 266 267 268 269 271 274 276 277 278 279 280 281 283
261 260 257 253 252 252 250 250 251 251 251 252 252 251 251 251 250 250 251 253 253 253 254 256 258 260 260 261 262 264 266 267 269 270 272 273 274 277 278 279 279 281 283
262 260 257 254 253 253 251 250 252 251 250 251 251 250 250 250 250 251 251 252 253 254 255 256 259 261 262 263 264 265 266 267 269 270 271 273 274 276 277 278 279 280 282
267 262 259 256 255 254 252 251 251 251 250 250 249 251 251 250 251 251 251 252 253 254 255 257 259 263 264 264 265 266 266 268 269 270 271 273 274 276 276 278 279 280 281
267 264 261 257 255 254 252 253 253 252 250 250 250 251 251 252 252 253 253 252 252 254 256 258 260 263 264 265 267 267 268 270 270 270 272 274 275 275 276 278 279 280 281
267 263 260 256 254 254 253 252 252 251 250 250 251 253 254 255 255 254 253 252 253 254 257 260 262 263 264 266 267 269 270 270 272 272 273 274 276 277 277 278 278 279 280
267 265 261 257 256 255 255 254 252 252 253 253 253 255 257 256 255 255 254 254 255 255 257 261 262 262 264 267 266 268 269 271 272 273 274 274 275 276 276 277 278 279 280
270 268 265 260 258 257 257 256 254 255 256 255 255 256 256 256 256 255 256 256 256 257 258 259 261 263 264 266 267 268 270 271 271 271 272 272 273 275 277 277 278 279 281
271 270 267 262 259 259 259 258 255 256 256 256 256 256 258 258 257 257 258 258 259 260 260 261 262 264 265 266 267 268 270 271 272 272 272 273 273 274 276 277 279 281 282
272 270 268 264 261 261 261 258 257 257 256 257 256 256 257 259 259 258 259 260 261 261 261 262 264 264 265 265 267 268 269 271 271 272 273 274 276 277 277 279 280 281 282
272 270 270 268 266 263 261 261 259 258 258 259 259 258 257 259 260 260 260 261 262 262 262 263 265 266 266 267 268 269 269 270 272 272 273 274 276 277 278 279 280 282 283
274 273 272 271 268 266 264 263 260 259 259 259 260 259 258 258 260 260 260 261 261 262 263 264 264 266 268 268 268 268 269 269 271 272 273 274 275 276 278 279 281 283 284
277 276 274 272 269 269 268 266 262 260 261 262 261 260 259 260 261 261 261 260 261 262 264 266 266 265 266 267 268 268 268 270 271 273 275 276 276 277 278 279 281 283 284
279 277 275 273 272 271 270 269 267 263 262 262 263 261 260 260 260 260 261 262 262 262 263 266 267 267 268 269 269 269 270 271 272 273 275 277 279 279 280 280 281 282 283
280 277 275 272 271 270 268 267 267 266 263 262 261 260 260 261 262 262 263 264 264 264 265 266 268 269 270 271 270 270 271 272 273 275 277 278 279 280 281 281 281 282 284
280 277 275 273 271 269 268 268 266 265 264 263 261 259 260 261 262 263 264 265 264 265 266 268 269 270 270 271 271 271 272 274 275 276 278 278 279 279 280 280 281 282 283
Height
5734 5737 5741 5744 5748 5751 5755 5759 5762 5765 5768 5771 5774 5778 5781 5785 5788 5791 5793 5795 5797 5799 5801 5803 5804 5805 5806 5807 5808 5809 5809 5810 5810 5810 5811 5811 5811 5811 5810 5809 5808 5808 5807
5724 5727 5731 5735 5738 5742 5745 5749 5752 5756 5759 5762 5765 5769 5773 5776 5779 5782 5784 5786 5788 5791 5793 5794 5796 5797 5798 5799 5800 5800 5801 5801 5802 5802 5802 5803 5804 5803 5802 5801 5800 5800 5799
5714 5718 5721 5725 5728 5732 5735 5739 5742 5746 5749 5752 5755 5759 5762 5766 5769 5772 5775 5777 5780 5782 5784 5785 5787 5788 5789 5790 5791 5792 5792 5793 5793 5793 5794 5794 5794 5795 5795 5794 5793 5792 5791
5704 5708 5711 5715 5718 5722 5725 5729 5732 5735 5739 5742 5745 5748 5752 5756 5760 5762 5765 5767 5770 5772 5774 5775 5777 5779 5780 5781 5782 5783 5783 5784 5784 5785 5785 5785 5785 5785 5786 5786 5784 5783 5782
5695 5698 5702 5705 5708 5711 5715 5718 5722 5725 5728 5732 5735 5738 5742 5746 5749 5752 5754 5757 5759 5762 5763 5765 5767 5769 5770 5771 5773 5774 5774 5775 5775 5775 5776 5776 5776 5775 5776 5776 5776 5775 5773
5685 5688 5691 5694 5698 5701 5704 5708 5711 5714 5717 5721 5724 5727 5730 5734 5738 5741 5743 5746 5749 5751 5753 5755 5757 5759 5760 5762 5763 5764 5765 5765 5766 5766 5766 5766 5766 5766 5766 5766 5766 5765 5764
5675 5678 5681 5684 5687 5691 5694 5697 5701 5704 5706 5709 5713 5716 5719 5723 5726 5730 5733 5735 5738 5741 5743 5744 5747 5748 5750 5751 5753 5754 5755 5756 5756 5757 5757 5757 5757 5756 5756 5756 5755 5755 5755
5665 5668 5671 5674 5677 5680 5683 5687 5690 5693 5696 5699 5702 5705 5708 5712 5715 5718 5721 5724 5727 5730 5732 5734 5736 5738 5739 5741 5742 5744 5745 5746 5747 5747 5747 5747 5747 5747 5746 5746 5745 5744 5744
5656 5658 5661 5664 5667 5670 5673 5676 5679 5682 5685 5688 5691 5694 5697 5700 5704 5707 5710 5714 5716 5719 5721 5723 5726 5728 5729 5731 5732 5734 5735 5736 5737 5737 5737 5737 5737 5737 5736 5735 5734 5734 5733
5648 5649 5652 5655 5657 5660 5663 5666 5669 5672 5674 5677 5679 5682 5686 5689 5692 5695 5699 5702 5705 5708 5710 5713 5715 5717 5719 5720 5722 5723 5724 5725 5726 5727 5727 5727 5727 5726 5726 5725 5724 5722 5721
5639 5640 5642 5645 5647 5650 5653 5656 5659 5661 5664 5666 5669 5671 5674 5677 5680 5684 5688 5691 5694 5697 5700 5702 5704 5706 5708 5710 5711 5712 5714 5715 5715 5716 5716 5717 5716 5716 5715 5713 5712 5711 5709
5630 5631 5633 5635 5638 5640 5643 5646 5649 5651 5653 5656 5658 5660 5663 5666 5669 5673 5677 5680 5683 5686 5689 5691 5693 5694 5696 5698 5700 5701 5702 5703 5704 5704 5705 5705 5705 5704 5703 5702 5701 5699 5698
5622 5623 5625 5627 5629 5631 5634 5637 5639 5641 5644 5646 5648 5650 5652 5656 5659 5662 5665 5669 5672 5675 5677 5679 5682 5683 5685 5686 5688 5689 5691 5692 5692 5693 5693 5693 5692 5692 5691 5690 5689 5687 5685
5615 5616 5617 5619 5621 5623 5625 5628 5630 5632 5634 5636 5638 5640 5642 5645 5648 5651 5654 5657 5660 5663 5666 5668 5670 5672 5674 5675 5676 5677 5679 5679 5680 5680 5680 5680 5680 5679 5678 5677 5676 5675 5673
5609 5609 5610 5611 5613 5615 5617 5619 5620 5622 5624 5627 5629 5630 5633 5635 5638 5640 5643 5646 5649 5652 5655 5657 5659 5661 5662 5663 5664 5665 5667 5667 5667 5667 5667 5667 5667 5666 5665 5664 5663 5662 5660
5602 5602 5602 5603 5605 5606 5608 5610 5611 5613 5616 5618 5620 5621 5623 5625 5628 5630 5633 5635 5638 5640 5643 5645 5648 5649 5651 5652 5653 5654 5654 5655 5654 5654 5654 5654 5653 5653 5652 5651 5650 5649 5647
5595 5595 5595 5596 5597 5598 5599 5601 5602 5604 5607 5609 5610 5612 5613 5615 5617 5620 5622 5625 5627 5629 5632 5634 5636 5638 5639 5640 5640 5641 5642 5642 5642 5641 5641 5641 5641 5640 5639 5638 5637 5636 5634
5588 5588 5587 5588 5589 5590 5591 5592 5594 5596 5597 5599 5600 5602 5603 5605 5607 5609 5611 5613 5615 5618 5620 5622 5624 5626 5627 5627 5628 5629 5629 5629 5629 5629 5629 5629 5628 5627 5627 5626 5625 5623 5622
5581 5580 5580 5580 5581 5582 5583 5584 5585 5586 5587 5589 5591 5592 5593 5595 5597 5599 5600 5602 5604 5606 5608 5610 5612 5613 5615 5615 5616 5616 5616 5617 5617 5617 5617 5616 5616 5615 5614 5614 5613 5612 5610
5574 5573 5573 5573 5573 5574 5575 5576 5577 5578 5579 5580 5581 5583 5584 5586 5587 5588 5590 5592 5593 5595 5597 5598 5600 5601 5602 5603 5604 5604 5604 5605 5605 5605 5604 5604 5603 5603 5602 5601 5600 5599 5597
5566 5566 5566 5565 5565 5566 5566 5567 5568 5569 5570 5571 5572 5573 5574 5576 5577 5579 5580 5581 5583 5584 5586 5587 5588 5589 5590 5591 5591 5591 5591 5592 5593 5593 5593 5592 5591 5590 5589 5588 5587 5586 5584
5559 5558 5558 5558 5557 5557 5557 5558 5559 5560 5561 5561 5562 5563 5564 5566 5567 5568 5569 5570 5572 5573 5574 5575 5576 5577 5578 5578 5579 5579 5579 5580 5581 5581 5580 5580 5579 5578 5577 5576 5575 5573 5572
5551 5551 5550 5549 5549 5548 5548 5548 5549 5550 5551 5551 5552 5553 5554 5555 5556 5558 5559 5560 5561 5562 5563 5564 5565 5566 5566 5567 5567 5568 5568 5568 5568 5568 5568 5567 5566 5566 5565 5564 5562 5561 5559
5544 5543 5542 5541 5540 5540 5539 5539 5539 5540 5541 5542 5543 5543 5545 5546 5547 5547 5548 5549 5550 5552 5553 5553 5554 5554 5555 5555 5555 5556 5556 5556 5556 5556 5556 5556 5555 5554 5553 5551 5550 5548 5546
5535 5534 5533 5532 5531 5531 5531 5531 5531 5531 5531 5532 5533 5534 5535 5536 5537 5537 5538 5539 5540 5540 5542 5542 5543 5543 5544 5543 5543 5543 5544 5544 5544 5544 5544 5544 5543 5542 5540 5539 5537 5536 5534
5527 5526 5525 5524 5523 5522 5522 5522 5521 5521 5521 5522 5522 5523 5524 5526 5527 5527 5528 5528 5529 5530 5530 5531 5532 5532 5532 5532 5532 5532 5532 5532 5532 5532 5532 5531 5530 5529 5528 5526 5525 5523 5521